QPF
0.03 0.05 0.08 0.05 0.03 0.03 0.05 0.08 0.04 0.00 0.00 0.00 0.00 0.00 0.00 0.00 0.00 0.00 0.00 0.00 0.00 0.00 0.00 0.00 0.00 0.00 0.00 0.00 0.00 0.00 0.00 0.00 0.00 0.00 0.00 0.00 0.00 0.00 0.00 0.00 0.00 0.00 0.00 0.00 0.00
0.01 0.00 0.00 0.00 0.00 0.01 0.03 0.01 0.00 0.00 0.00 0.00 0.00 0.00 0.00 0.00 0.00 0.00 0.00 0.00 0.00 0.00 0.00 0.00 0.00 0.00 0.00 0.00 0.00 0.00 0.00 0.00 0.00 0.00 0.00 0.00 0.00 0.00 0.00 0.00 0.00 0.00 0.00 0.00 0.00
0.01 0.00 0.00 0.00 0.00 0.00 0.00 0.00 0.00 0.00 0.00 0.00 0.00 0.00 0.00 0.00 0.00 0.00 0.00 0.00 0.00 0.00 0.00 0.00 0.00 0.00 0.00 0.00 0.00 0.00 0.00 0.00 0.00 0.00 0.00 0.00 0.00 0.00 0.00 0.00 0.00 0.00 0.00 0.00 0.00
0.01 0.01 0.00 0.00 0.00 0.00 0.00 0.00 0.00 0.00 0.00 0.00 0.00 0.00 0.00 0.00 0.00 0.00 0.00 0.00 0.00 0.00 0.00 0.00 0.00 0.00 0.00 0.00 0.00 0.00 0.00 0.00 0.00 0.00 0.00 0.00 0.00 0.00 0.00 0.00 0.00 0.00 0.00 0.00 0.00
0.00 0.00 0.00 0.00 0.00 0.00 0.00 0.00 0.00 0.00 0.00 0.00 0.00 0.00 0.00 0.00 0.00 0.00 0.00 0.00 0.00 0.00 0.00 0.00 0.00 0.00 0.00 0.00 0.00 0.00 0.00 0.00 0.00 0.00 0.00 0.00 0.00 0.00 0.00 0.00 0.00 0.00 0.00 0.00 0.00
0.00 0.00 0.00 0.00 0.00 0.00 0.00 0.00 0.00 0.00 0.00 0.00 0.00 0.00 0.00 0.00 0.00 0.00 0.00 0.00 0.00 0.00 0.00 0.00 0.00 0.00 0.00 0.00 0.00 0.00 0.00 0.00 0.00 0.00 0.00 0.00 0.00 0.00 0.00 0.00 0.00 0.00 0.00 0.00 0.00
0.00 0.00 0.00 0.00 0.00 0.00 0.00 0.00 0.00 0.00 0.00 0.00 0.00 0.00 0.00 0.00 0.00 0.00 0.00 0.00 0.00 0.00 0.00 0.00 0.00 0.00 0.00 0.00 0.00 0.00 0.00 0.00 0.00 0.00 0.00 0.00 0.00 0.00 0.00 0.00 0.00 0.00 0.00 0.00 0.00
0.00 0.00 0.00 0.00 0.00 0.00 0.00 0.00 0.00 0.00 0.00 0.00 0.00 0.00 0.00 0.00 0.00 0.00 0.00 0.00 0.00 0.00 0.00 0.00 0.00 0.00 0.00 0.00 0.00 0.00 0.00 0.00 0.00 0.00 0.00 0.00 0.00 0.00 0.00 0.00 0.00 0.00 0.00 0.00 0.00
0.00 0.00 0.00 0.00 0.00 0.00 0.00 0.00 0.00 0.00 0.00 0.00 0.00 0.00 0.00 0.00 0.00 0.00 0.00 0.00 0.00 0.00 0.00 0.00 0.00 0.00 0.00 0.00 0.00 0.00 0.00 0.00 0.00 0.00 0.00 0.00 0.00 0.00 0.00 0.00 0.00 0.00 0.00 0.00 0.00
0.00 0.00 0.00 0.00 0.00 0.00 0.00 0.00 0.00 0.00 0.00 0.00 0.00 0.00 0.00 0.00 0.00 0.00 0.00 0.00 0.00 0.00 0.00 0.00 0.00 0.00 0.00 0.00 0.00 0.00 0.00 0.00 0.00 0.00 0.00 0.00 0.00 0.00 0.00 0.00 0.00 0.00 0.00 0.00 0.00
0.00 0.00 0.00 0.00 0.00 0.00 0.00 0.00 0.00 0.00 0.00 0.00 0.00 0.00 0.00 0.00 0.00 0.00 0.00 0.00 0.00 0.00 0.00 0.00 0.00 0.00 0.00 0.00 0.00 0.00 0.00 0.00 0.00 0.00 0.00 0.00 0.00 0.00 0.00 0.00 0.00 0.00 0.00 0.00 0.00
0.00 0.00 0.00 0.00 0.00 0.00 0.00 0.00 0.00 0.00 0.00 0.00 0.00 0.00 0.00 0.00 0.00 0.00 0.00 0.00 0.00 0.00 0.00 0.00 0.00 0.00 0.00 0.00 0.00 0.00 0.00 0.00 0.00 0.00 0.00 0.00 0.00 0.00 0.00 0.00 0.00 0.00 0.00 0.00 0.00
0.00 0.00 0.00 0.00 0.00 0.00 0.00 0.00 0.00 0.00 0.00 0.00 0.00 0.00 0.00 0.00 0.00 0.00 0.00 0.00 0.00 0.00 0.00 0.00 0.00 0.00 0.00 0.00 0.00 0.00 0.00 0.00 0.00 0.00 0.00 0.00 0.00 0.00 0.00 0.00 0.00 0.00 0.00 0.00 0.00
0.00 0.00 0.00 0.00 0.00 0.00 0.00 0.00 0.00 0.00 0.00 0.00 0.00 0.00 0.00 0.00 0.00 0.00 0.00 0.00 0.00 0.00 0.00 0.00 0.00 0.00 0.00 0.00 0.00 0.00 0.00 0.00 0.00 0.00 0.00 0.00 0.00 0.00 0.00 0.00 0.00 0.00 0.00 0.00 0.00
0.00 0.00 0.00 0.00 0.00 0.00 0.00 0.00 0.00 0.00 0.00 0.00 0.00 0.00 0.00 0.00 0.00 0.00 0.00 0.00 0.00 0.00 0.00 0.00 0.00 0.00 0.00 0.00 0.00 0.00 0.00 0.00 0.00 0.00 0.00 0.00 0.00 0.00 0.00 0.00 0.00 0.00 0.00 0.00 0.00
0.00 0.00 0.00 0.00 0.00 0.00 0.00 0.00 0.00 0.00 0.00 0.00 0.00 0.00 0.00 0.00 0.00 0.00 0.00 0.00 0.00 0.00 0.00 0.00 0.00 0.00 0.00 0.00 0.00 0.00 0.00 0.00 0.00 0.00 0.00 0.00 0.00 0.00 0.00 0.00 0.00 0.00 0.00 0.00 0.00
0.00 0.00 0.00 0.00 0.00 0.00 0.00 0.00 0.00 0.00 0.00 0.00 0.00 0.00 0.00 0.00 0.00 0.00 0.00 0.00 0.00 0.00 0.00 0.00 0.00 0.00 0.00 0.00 0.00 0.00 0.00 0.00 0.00 0.00 0.00 0.00 0.00 0.00 0.00 0.00 0.00 0.00 0.00 0.00 0.00
0.00 0.00 0.00 0.00 0.00 0.00 0.00 0.00 0.00 0.00 0.00 0.00 0.00 0.00 0.00 0.00 0.00 0.00 0.00 0.00 0.00 0.00 0.00 0.00 0.00 0.00 0.00 0.00 0.00 0.00 0.00 0.00 0.00 0.00 0.00 0.00 0.00 0.00 0.00 0.00 0.00 0.00 0.00 0.00 0.00
0.00 0.00 0.00 0.00 0.00 0.00 0.00 0.00 0.00 0.00 0.00 0.00 0.00 0.00 0.00 0.00 0.00 0.00 0.00 0.00 0.00 0.00 0.00 0.00 0.00 0.00 0.00 0.00 0.00 0.00 0.00 0.00 0.00 0.00 0.00 0.00 0.00 0.00 0.00 0.00 0.00 0.00 0.00 0.00 0.00
0.00 0.00 0.00 0.00 0.00 0.00 0.00 0.00 0.00 0.00 0.00 0.00 0.00 0.00 0.00 0.00 0.00 0.00 0.00 0.00 0.00 0.00 0.00 0.00 0.00 0.00 0.00 0.00 0.00 0.00 0.00 0.00 0.00 0.00 0.00 0.00 0.00 0.00 0.00 0.00 0.00 0.00 0.00 0.00 0.00
0.00 0.00 0.00 0.00 0.00 0.00 0.00 0.00 0.00 0.00 0.00 0.00 0.00 0.00 0.00 0.00 0.00 0.00 0.00 0.00 0.00 0.00 0.00 0.00 0.00 0.00 0.00 0.00 0.00 0.00 0.00 0.00 0.00 0.00 0.00 0.00 0.00 0.00 0.00 0.00 0.00 0.00 0.00 0.00 0.00
0.00 0.00 0.00 0.00 0.00 0.00 0.00 0.00 0.00 0.00 0.00 0.00 0.00 0.00 0.00 0.00 0.00 0.00 0.00 0.00 0.00 0.00 0.00 0.00 0.00 0.00 0.00 0.00 0.00 0.00 0.00 0.00 0.00 0.00 0.00 0.00 0.00 0.00 0.00 0.00 0.00 0.00 0.00 0.00 0.00
0.00 0.00 0.00 0.00 0.00 0.00 0.00 0.00 0.00 0.00 0.00 0.00 0.00 0.00 0.00 0.00 0.00 0.00 0.00 0.00 0.00 0.00 0.00 0.00 0.00 0.00 0.00 0.00 0.00 0.00 0.00 0.00 0.00 0.00 0.00 0.00 0.00 0.00 0.00 0.00 0.00 0.00 0.00 0.00 0.00
0.00 0.00 0.00 0.00 0.00 0.00 0.00 0.00 0.00 0.00 0.00 0.00 0.00 0.00 0.00 0.00 0.00 0.00 0.00 0.00 0.00 0.00 0.00 0.00 0.00 0.00 0.00 0.00 0.00 0.00 0.00 0.00 0.00 0.00 0.00 0.00 0.00 0.00 0.00 0.00 0.00 0.00 0.00 0.00 0.00
0.00 0.00 0.00 0.00 0.00 0.00 0.00 0.00 0.00 0.00 0.00 0.00 0.00 0.00 0.00 0.00 0.00 0.00 0.00 0.00 0.00 0.00 0.00 0.00 0.00 0.00 0.00 0.00 0.00 0.00 0.00 0.00 0.00 0.00 0.00 0.00 0.00 0.00 0.00 0.00 0.00 0.00 0.00 0.00 0.00
0.00 0.00 0.00 0.00 0.00 0.00 0.00 0.00 0.00 0.00 0.00 0.00 0.00 0.00 0.00 0.00 0.00 0.00 0.00 0.00 0.00 0.00 0.00 0.00 0.00 0.00 0.00 0.00 0.00 0.00 0.00 0.00 0.00 0.00 0.00 0.00 0.00 0.00 0.00 0.00 0.00 0.00 0.00 0.00 0.00
0.00 0.00 0.00 0.00 0.00 0.00 0.00 0.00 0.00 0.00 0.00 0.00 0.00 0.00 0.00 0.00 0.00 0.00 0.00 0.00 0.00 0.00 0.00 0.00 0.00 0.00 0.00 0.00 0.00 0.00 0.00 0.00 0.00 0.00 0.00 0.00 0.00 0.00 0.00 0.00 0.00 0.00 0.00 0.00 0.00
MSLP
1016.08 1016.02 1016.23 1016.57 1017.08 1017.01 1017.41 1017.70 1017.83 1018.11 1018.22 1018.44 1018.52 1018.58 1018.51 1018.44 1018.12 1017.54 1017.67 1018.65 1018.27 1017.92 1017.71 1017.39 1017.04 1016.92 1016.64 1016.97 1017.20 1016.99 1016.04 1015.18 1015.05 1015.34 1015.07 1015.76 1015.67 1015.30 1015.39 1014.94 1014.50 1014.15 1013.88 1014.02 1014.30
1017.38 1017.14 1017.11 1017.38 1017.45 1017.42 1017.76 1017.95 1018.24 1018.43 1018.55 1018.71 1018.75 1018.81 1018.78 1018.82 1018.10 1018.17 1019.34 1018.76 1018.38 1017.99 1017.70 1017.35 1017.13 1016.96 1016.91 1017.40 1017.49 1016.96 1016.54 1016.10 1016.63 1016.59 1016.34 1016.35 1016.35 1015.96 1015.52 1014.59 1014.29 1013.88 1013.87 1014.42 1014.56
1017.59 1017.91 1017.84 1018.04 1018.02 1018.14 1018.29 1018.63 1018.76 1018.86 1018.81 1018.85 1018.89 1018.92 1018.84 1018.74 1018.34 1019.22 1019.49 1019.03 1018.53 1018.16 1017.96 1017.81 1017.49 1017.18 1017.22 1017.66 1017.80 1017.66 1016.98 1017.25 1016.98 1017.10 1017.26 1016.88 1016.42 1016.04 1015.44 1014.44 1013.87 1013.67 1013.61 1013.89 1014.22
1018.70 1018.49 1018.47 1018.53 1018.70 1018.81 1018.91 1019.02 1019.08 1019.08 1019.08 1019.07 1019.09 1018.98 1018.87 1018.64 1019.38 1019.69 1019.73 1019.28 1018.77 1018.10 1018.02 1017.87 1017.58 1017.43 1017.61 1017.79 1018.26 1017.91 1017.70 1017.72 1017.42 1017.49 1017.37 1016.69 1016.16 1015.49 1014.79 1013.76 1013.75 1013.52 1013.70 1013.87 1013.71
1019.90 1019.68 1019.50 1019.37 1019.43 1019.44 1019.41 1019.39 1019.35 1019.31 1019.26 1019.16 1019.08 1019.01 1018.87 1018.80 1019.73 1019.91 1019.89 1019.32 1018.92 1018.69 1018.37 1018.13 1017.94 1018.11 1017.97 1018.38 1018.47 1018.28 1018.03 1018.06 1017.87 1017.62 1017.33 1016.84 1016.09 1015.31 1013.96 1013.72 1013.58 1013.29 1013.28 1013.54 1013.60
1020.66 1020.44 1020.25 1020.10 1020.02 1019.94 1019.83 1019.69 1019.51 1019.38 1019.36 1019.18 1019.00 1018.99 1018.84 1019.27 1020.07 1020.15 1019.95 1019.50 1019.26 1018.88 1018.74 1018.62 1018.93 1018.96 1018.57 1018.71 1018.69 1018.54 1018.35 1017.92 1017.54 1017.15 1016.93 1016.38 1015.15 1014.71 1012.98 1013.37 1012.97 1012.86 1012.58 1012.29 1012.51
1021.21 1021.03 1020.77 1020.55 1020.37 1020.16 1019.98 1019.83 1019.72 1019.61 1019.43 1019.23 1019.25 1018.98 1019.11 1020.36 1020.34 1020.22 1019.91 1019.78 1019.63 1019.43 1019.22 1019.48 1019.42 1019.05 1019.02 1018.92 1019.18 1018.83 1018.46 1017.46 1017.19 1017.08 1016.52 1016.08 1014.05 1013.17 1013.02 1012.93 1012.52 1012.55 1012.22 1012.01 1012.08
1021.57 1021.32 1021.07 1020.82 1020.57 1020.34 1020.11 1019.87 1019.69 1019.60 1019.50 1019.41 1019.27 1018.91 1019.75 1020.37 1020.29 1020.12 1019.83 1019.70 1019.77 1019.76 1019.70 1019.79 1019.73 1019.52 1019.33 1019.32 1018.97 1018.48 1018.29 1017.20 1016.94 1016.89 1016.27 1016.48 1012.18 1012.68 1012.53 1012.66 1012.04 1011.75 1011.59 1011.79 1011.67
1021.62 1021.33 1021.01 1020.70 1020.44 1020.22 1019.97 1019.84 1019.74 1019.63 1019.48 1019.32 1019.11 1019.03 1020.07 1020.34 1020.26 1020.25 1020.22 1019.99 1019.89 1019.89 1019.95 1019.96 1019.74 1019.54 1019.31 1018.75 1018.11 1018.35 1017.69 1017.46 1016.83 1016.92 1016.79 1016.41 1013.06 1011.77 1012.35 1011.97 1011.26 1011.00 1010.91 1010.92 1011.19
1021.62 1021.32 1020.97 1020.61 1020.27 1020.08 1019.76 1019.56 1019.61 1019.27 1019.27 1019.25 1019.56 1019.76 1020.51 1020.66 1020.60 1020.55 1020.42 1020.31 1020.05 1019.96 1019.92 1019.72 1019.53 1019.05 1019.00 1018.82 1018.42 1018.37 1017.98 1017.37 1017.19 1016.43 1016.17 1015.29 1013.33 1011.75 1010.99 1010.55 1010.09 1009.86 1010.09 1010.21 1010.49
1021.60 1021.25 1020.94 1020.63 1020.24 1019.96 1019.61 1019.54 1019.88 1020.16 1020.29 1020.90 1021.02 1020.95 1021.02 1021.00 1021.06 1020.58 1020.39 1020.30 1020.24 1020.03 1019.81 1020.22 1019.58 1018.88 1019.29 1019.45 1019.42 1019.29 1018.66 1017.59 1016.84 1016.68 1016.31 1014.22 1013.03 1011.10 1010.21 1009.80 1009.34 1009.01 1009.51 1009.81 1009.94
1022.07 1021.72 1021.26 1020.92 1020.68 1020.38 1020.12 1020.69 1021.81 1022.12 1021.76 1021.61 1021.46 1021.36 1021.35 1021.26 1020.82 1020.63 1020.56 1020.41 1020.27 1020.17 1020.32 1020.11 1019.58 1019.91 1020.11 1019.93 1019.67 1019.16 1018.41 1017.28 1016.74 1016.63 1016.73 1014.12 1012.08 1010.50 1010.13 1009.94 1009.52 1009.16 1009.40 1009.79 1010.29
1021.96 1021.60 1021.30 1021.09 1020.85 1020.87 1021.26 1022.20 1022.46 1022.25 1021.69 1021.78 1021.54 1021.33 1021.38 1021.37 1021.03 1020.85 1020.80 1020.92 1020.77 1020.61 1020.60 1020.42 1020.24 1020.50 1020.35 1019.91 1019.45 1018.63 1018.07 1017.58 1017.58 1016.75 1015.49 1014.56 1010.67 1009.79 1009.45 1009.58 1009.39 1009.26 1009.68 1010.05 1010.39
1021.68 1021.45 1021.18 1020.90 1021.14 1021.73 1022.02 1022.51 1022.47 1022.29 1021.71 1021.78 1021.34 1021.46 1021.40 1021.29 1021.16 1021.22 1021.22 1021.37 1021.04 1020.98 1020.95 1020.70 1020.75 1020.58 1020.27 1019.87 1019.67 1018.28 1018.20 1018.10 1017.50 1016.99 1015.41 1015.28 1012.03 1009.84 1009.23 1008.87 1009.20 1009.38 1009.49 1010.11 1010.47
1021.82 1021.42 1021.27 1020.60 1021.43 1021.96 1022.68 1022.60 1022.47 1022.18 1021.93 1022.03 1021.36 1021.35 1021.37 1021.49 1021.49 1021.30 1021.47 1021.21 1021.10 1021.12 1021.41 1020.67 1020.78 1020.67 1020.27 1019.78 1019.73 1018.39 1017.95 1017.88 1017.51 1016.89 1016.25 1014.89 1013.54 1009.54 1009.21 1008.81 1009.13 1009.70 1009.83 1009.97 1010.48
1021.94 1021.58 1021.40 1021.37 1021.66 1022.88 1022.80 1022.55 1022.40 1021.89 1021.73 1021.70 1021.38 1021.34 1021.14 1021.20 1021.18 1021.09 1021.22 1021.33 1021.32 1021.13 1021.17 1020.97 1021.42 1021.14 1020.43 1020.07 1019.78 1018.86 1017.74 1017.37 1017.36 1016.62 1015.60 1015.03 1014.03 1009.91 1009.25 1009.66 1009.33 1009.45 1009.97 1010.21 1010.16
1022.17 1021.94 1021.58 1022.08 1022.64 1022.79 1022.69 1022.12 1021.89 1021.58 1022.21 1021.71 1021.64 1021.56 1021.47 1021.10 1020.97 1020.99 1021.02 1020.94 1021.17 1020.89 1020.63 1020.64 1020.71 1020.85 1020.87 1020.06 1019.68 1018.81 1017.26 1016.60 1016.46 1015.84 1014.91 1014.65 1013.47 1010.41 1009.52 1009.75 1010.09 1010.04 1010.09 1010.27 1010.25
1022.32 1022.19 1022.63 1022.76 1023.00 1022.90 1022.47 1021.95 1021.48 1022.14 1021.87 1022.02 1021.77 1021.40 1021.22 1021.31 1021.11 1020.99 1020.85 1020.93 1021.55 1021.52 1021.32 1021.15 1020.44 1020.76 1020.87 1020.58 1020.21 1019.71 1019.23 1018.47 1018.16 1016.99 1015.39 1013.91 1012.25 1009.69 1009.75 1009.76 1009.91 1010.19 1010.29 1010.23 1010.20
1022.43 1022.41 1022.47 1022.74 1022.87 1022.94 1022.28 1021.88 1022.35 1022.29 1022.36 1022.09 1021.58 1021.27 1021.00 1021.21 1021.36 1020.93 1021.05 1021.24 1021.69 1021.85 1021.88 1021.59 1020.68 1020.75 1020.93 1020.97 1020.97 1020.01 1019.93 1020.24 1019.33 1018.88 1017.03 1013.39 1011.53 1010.14 1009.75 1009.61 1009.60 1009.75 1009.99 1010.03 1010.07
1022.30 1022.29 1022.45 1022.76 1022.73 1022.37 1021.72 1022.51 1022.58 1022.59 1022.56 1022.42 1021.82 1021.68 1021.10 1020.93 1020.88 1020.85 1020.91 1021.62 1022.10 1022.58 1022.61 1022.52 1021.83 1020.81 1021.03 1020.97 1021.18 1020.79 1020.81 1020.48 1020.03 1018.69 1016.27 1013.14 1011.71 1009.92 1009.58 1009.68 1009.84 1009.77 1009.87 1009.80 1009.89
1022.44 1022.09 1022.45 1022.54 1022.50 1021.87 1022.51 1022.90 1022.81 1022.75 1022.84 1022.80 1022.28 1021.85 1021.66 1021.50 1021.39 1021.16 1021.26 1021.75 1022.10 1022.74 1022.95 1022.85 1022.89 1021.31 1021.25 1020.87 1020.57 1021.07 1020.69 1020.78 1020.80 1019.84 1018.15 1015.26 1011.32 1010.03 1010.01 1010.22 1010.35 1010.13 1009.94 1009.76 1009.55
1022.67 1022.45 1022.48 1022.25 1022.26 1023.00 1023.06 1023.19 1023.14 1022.82 1022.87 1022.75 1022.64 1022.35 1022.06 1021.85 1021.53 1021.39 1021.46 1021.77 1022.37 1022.77 1023.01 1023.37 1023.04 1021.97 1020.73 1021.18 1021.27 1020.97 1020.63 1020.41 1020.17 1019.85 1018.98 1017.71 1012.78 1010.80 1010.61 1010.66 1010.78 1010.37 1010.16 1009.82 1009.53
1023.46 1023.13 1022.27 1022.15 1022.73 1023.31 1023.31 1023.18 1023.07 1022.87 1022.78 1022.78 1022.59 1022.54 1022.50 1022.16 1021.84 1021.59 1021.69 1022.11 1022.57 1022.87 1023.05 1023.51 1023.24 1022.10 1020.22 1021.28 1021.10 1020.76 1020.50 1020.47 1020.58 1020.12 1018.39 1017.15 1012.27 1011.11 1011.14 1010.73 1010.30 1010.12 1009.82 1009.58 1009.23
1024.03 1023.64 1023.04 1023.12 1024.21 1023.72 1023.62 1023.27 1022.95 1022.92 1022.81 1022.78 1022.76 1022.76 1022.60 1022.25 1022.16 1021.75 1021.80 1021.98 1022.59 1022.81 1023.09 1023.14 1022.96 1022.14 1020.98 1019.83 1019.82 1019.89 1019.60 1019.93 1019.69 1019.24 1017.49 1014.79 1011.81 1010.61 1010.77 1010.53 1010.05 1009.81 1009.68 1009.33 1008.93
1024.70 1024.93 1025.38 1024.33 1024.21 1024.15 1023.95 1023.61 1023.14 1022.93 1022.89 1022.79 1022.64 1022.59 1022.47 1022.21 1021.94 1021.65 1021.80 1021.79 1021.95 1022.51 1023.08 1023.36 1022.80 1021.81 1020.69 1019.99 1019.44 1018.71 1017.96 1018.14 1018.14 1017.39 1016.72 1012.85 1012.43 1011.11 1010.74 1010.33 1010.05 1009.96 1009.73 1009.32 1008.65
1025.26 1025.19 1025.54 1024.86 1024.85 1024.43 1023.99 1023.54 1023.29 1022.96 1022.88 1022.44 1022.45 1022.21 1022.31 1022.30 1022.13 1021.55 1021.58 1021.77 1021.72 1022.34 1022.79 1023.23 1022.38 1022.04 1020.78 1019.48 1018.64 1017.54 1016.36 1015.89 1016.33 1015.94 1015.52 1013.79 1012.81 1011.50 1010.74 1010.64 1010.27 1009.90 1009.65 1009.28 1008.83
1025.83 1025.79 1025.42 1024.78 1024.55 1024.34 1023.60 1023.24 1023.09 1023.14 1022.54 1022.51 1022.50 1022.31 1022.07 1021.83 1021.65 1021.22 1020.99 1020.83 1020.77 1021.11 1021.89 1022.78 1022.75 1022.28 1019.71 1019.37 1018.39 1016.11 1013.29 1013.56 1013.74 1013.81 1013.58 1013.56 1011.10 1011.07 1010.86 1010.66 1010.53 1010.15 1009.63 1009.16 1008.77
Thickness
5534 5538 5540 5542 5543 5551 5560 5570 5583 5593 5604 5613 5623 5631 5642 5650 5657 5666 5665 5664 5671 5676 5679 5682 5684 5683 5685 5677 5674 5671 5670 5670 5669 5661 5667 5661 5655 5664 5660 5656 5662 5666 5668 5672 5673
5541 5542 5544 5548 5555 5561 5570 5581 5589 5599 5609 5617 5625 5633 5642 5648 5659 5660 5656 5662 5666 5672 5675 5677 5676 5679 5675 5667 5665 5667 5663 5662 5653 5650 5648 5646 5640 5642 5642 5649 5647 5652 5657 5654 5655
5554 5551 5554 5558 5565 5571 5579 5585 5594 5603 5613 5622 5629 5636 5644 5650 5656 5650 5652 5657 5664 5670 5672 5672 5674 5675 5668 5664 5658 5653 5654 5644 5643 5639 5633 5629 5629 5632 5627 5630 5636 5635 5639 5642 5641
5556 5558 5561 5566 5571 5578 5585 5594 5602 5611 5619 5625 5630 5637 5643 5650 5645 5647 5649 5655 5662 5668 5670 5670 5671 5667 5661 5656 5648 5646 5642 5636 5635 5630 5625 5622 5624 5619 5619 5626 5628 5629 5626 5625 5627
5565 5566 5569 5574 5578 5583 5591 5599 5607 5614 5620 5625 5631 5637 5644 5645 5640 5646 5649 5656 5660 5663 5663 5663 5662 5657 5655 5647 5643 5639 5636 5630 5629 5624 5621 5619 5614 5610 5615 5610 5605 5603 5602 5603 5606
5581 5583 5585 5586 5590 5595 5600 5606 5613 5618 5622 5629 5636 5641 5646 5644 5644 5644 5649 5653 5656 5658 5657 5658 5651 5649 5648 5643 5640 5636 5630 5628 5627 5624 5619 5613 5616 5607 5611 5601 5597 5591 5589 5592 5592
5595 5595 5598 5601 5605 5609 5613 5617 5621 5625 5631 5636 5640 5646 5645 5637 5643 5645 5649 5650 5652 5653 5652 5649 5647 5646 5643 5638 5633 5630 5623 5630 5622 5617 5614 5608 5616 5603 5597 5587 5582 5575 5573 5571 5570
5609 5610 5611 5613 5616 5619 5622 5625 5630 5633 5637 5641 5646 5651 5641 5643 5644 5647 5649 5651 5650 5649 5648 5645 5643 5640 5637 5633 5631 5629 5625 5626 5622 5614 5613 5593 5616 5597 5588 5571 5569 5564 5557 5549 5551
5620 5622 5624 5627 5630 5632 5635 5637 5640 5641 5644 5648 5652 5653 5642 5644 5645 5645 5645 5645 5646 5646 5644 5642 5641 5636 5636 5637 5640 5629 5628 5618 5617 5608 5595 5578 5589 5593 5577 5568 5561 5553 5542 5535 5534
5629 5631 5634 5637 5641 5643 5646 5647 5648 5650 5652 5652 5650 5651 5643 5639 5641 5642 5644 5643 5643 5643 5642 5641 5640 5643 5638 5634 5631 5621 5617 5616 5602 5608 5594 5581 5578 5585 5584 5574 5560 5544 5529 5521 5521
5634 5637 5640 5643 5646 5649 5650 5652 5649 5648 5646 5637 5636 5636 5637 5640 5640 5644 5645 5644 5643 5644 5642 5634 5641 5647 5633 5625 5619 5610 5607 5608 5612 5601 5585 5588 5579 5591 5590 5577 5561 5543 5519 5511 5515
5636 5638 5642 5644 5645 5648 5649 5645 5636 5637 5637 5635 5635 5636 5637 5638 5640 5641 5643 5643 5642 5640 5636 5639 5642 5630 5621 5617 5612 5610 5610 5616 5611 5600 5581 5587 5587 5598 5587 5572 5558 5542 5524 5514 5516
5642 5644 5645 5646 5647 5646 5643 5636 5633 5634 5643 5636 5637 5638 5638 5639 5639 5640 5641 5636 5635 5634 5631 5630 5632 5620 5617 5617 5614 5619 5613 5610 5596 5595 5598 5586 5619 5606 5597 5580 5567 5553 5538 5530 5531
5649 5649 5650 5651 5649 5642 5640 5635 5635 5636 5644 5640 5640 5639 5640 5638 5638 5637 5636 5633 5633 5631 5625 5628 5621 5617 5617 5615 5609 5617 5609 5599 5594 5589 5599 5580 5598 5605 5599 5591 5577 5565 5555 5544 5540
5651 5653 5654 5657 5650 5646 5638 5636 5637 5640 5640 5640 5639 5640 5638 5636 5634 5634 5632 5631 5630 5627 5621 5631 5619 5616 5613 5613 5604 5615 5611 5600 5592 5588 5582 5587 5577 5615 5607 5596 5587 5574 5567 5561 5553
5653 5654 5654 5652 5649 5638 5638 5638 5640 5647 5635 5637 5636 5633 5637 5634 5634 5633 5630 5627 5623 5620 5614 5617 5604 5604 5610 5605 5601 5605 5608 5602 5591 5591 5598 5577 5571 5613 5605 5591 5591 5589 5579 5573 5571
5653 5652 5653 5648 5645 5639 5638 5643 5646 5639 5631 5636 5630 5628 5625 5629 5629 5627 5624 5626 5624 5625 5623 5618 5611 5603 5598 5604 5601 5605 5615 5618 5619 5606 5611 5577 5578 5605 5613 5601 5590 5586 5584 5581 5580
5651 5650 5645 5642 5638 5637 5639 5647 5637 5632 5633 5624 5623 5625 5627 5621 5623 5620 5622 5624 5607 5608 5608 5607 5622 5603 5595 5594 5591 5589 5589 5593 5587 5597 5597 5593 5595 5622 5611 5606 5599 5591 5587 5585 5585
5648 5647 5645 5639 5637 5635 5643 5631 5635 5629 5622 5621 5625 5627 5629 5619 5613 5617 5612 5611 5602 5598 5605 5602 5615 5593 5587 5583 5581 5585 5581 5569 5567 5548 5562 5601 5610 5616 5612 5610 5607 5601 5594 5591 5589
5644 5645 5643 5636 5635 5637 5646 5628 5624 5617 5615 5613 5621 5616 5622 5620 5617 5614 5609 5599 5594 5584 5581 5583 5586 5589 5581 5578 5572 5574 5567 5570 5563 5571 5585 5613 5599 5614 5614 5608 5605 5603 5599 5597 5593
5637 5644 5636 5632 5631 5643 5622 5621 5615 5613 5609 5607 5609 5609 5607 5605 5601 5603 5601 5593 5587 5578 5573 5572 5570 5592 5574 5577 5580 5566 5564 5554 5545 5553 5564 5573 5614 5616 5608 5600 5594 5598 5599 5598 5597
5628 5635 5627 5626 5632 5613 5614 5608 5604 5607 5602 5601 5598 5597 5596 5593 5595 5594 5593 5590 5579 5574 5572 5560 5561 5567 5586 5558 5555 5558 5563 5560 5560 5553 5548 5539 5580 5602 5598 5593 5589 5591 5592 5594 5594
5615 5614 5620 5620 5615 5607 5603 5601 5598 5598 5596 5592 5591 5587 5583 5584 5587 5583 5582 5575 5565 5562 5556 5544 5550 5560 5588 5555 5550 5553 5549 5548 5525 5530 5547 5549 5594 5588 5586 5589 5595 5591 5592 5591 5592
5603 5608 5609 5602 5587 5594 5590 5591 5592 5587 5586 5582 5579 5575 5574 5575 5571 5574 5569 5567 5555 5553 5547 5542 5541 5553 5566 5571 5558 5556 5552 5539 5538 5534 5547 5565 5593 5592 5589 5585 5586 5588 5588 5590 5591
5583 5581 5570 5587 5585 5579 5577 5575 5577 5578 5574 5571 5569 5567 5567 5566 5566 5564 5559 5561 5558 5545 5540 5530 5525 5549 5554 5555 5552 5553 5559 5553 5533 5541 5539 5583 5572 5580 5582 5581 5581 5581 5580 5582 5587
5571 5571 5558 5569 5559 5565 5567 5569 5567 5567 5564 5567 5560 5561 5557 5552 5550 5551 5550 5547 5546 5535 5530 5518 5526 5501 5518 5547 5546 5543 5560 5558 5547 5546 5538 5555 5558 5569 5573 5569 5568 5573 5572 5573 5575
5548 5546 5551 5561 5559 5558 5563 5563 5558 5554 5559 5554 5548 5547 5546 5546 5546 5545 5545 5545 5542 5538 5523 5500 5504 5498 5540 5528 5525 5547 5571 5572 5564 5550 5546 5533 5566 5562 5556 5556 5553 5555 5559 5564 5565